SB KEPS @ AMSAT $ORB12278.N 2Line Orbital Elements 12278.AMSAT
HR AMSAT ORBITAL ELEMENTS FOR AMATEUR SATELLITES IN NASA FORMAT FROM WA5QGD FORT WORTH,TX October 4, 2012 BID: ORB12278.N
DECODE 2-LINE ELSETS WITH THE FOLLOWING KEY: 1 AAAAAU 00 0 0 BBBBB.BBBBBBBB .CCCCCCCC 00000-0 00000-0 0 DDDZ 2 AAAAA EEE.EEEE FFF.FFFF GGGGGGG HHH.HHHH III.IIII JJ.JJJJJJJJKKKKKZ KEY: A-CATALOGNUM B-EPOCHTIME C-DECAY D-ELSETNUM E-INCLINATION F-RAAN G-ECCENTRICITY H-ARGPERIGEE I-MNANOM J-MNMOTION K-ORBITNUM Z-CHECKSUM
TO ALL RADIO AMATEURS BT
AO-07 1 07530U 74089B 12277.52119834 -.00000027 00000-0 10000-3 0 04983 2 07530 101.4117 270.5822 0012150 070.3436 289.8951 12.53591734733623 FO-29 1 24278U 96046B 12277.81841158 .00000090 00000-0 12441-3 0 9470 2 24278 098.5874 004.2710 0351205 108.0888 255.8833 13.52990391796647 SO-33 1 25509U 98061B 12278.54667848 .00000605 00000-0 11015-3 0 3359 2 25509 031.4302 074.7712 0351442 080.3375 283.6733 14.28829498728306 RS-22 1 27939U 03042A 12278.61912168 .00000949 00000-0 18887-3 0 7831 2 27939 097.8025 113.7933 0012334 280.6807 079.2990 14.64156007481894 VO-52 1 28650U 05017B 12278.62311789 .00001692 00000-0 21187-3 0 2253 2 28650 097.5888 304.1948 0027420 043.0709 317.2609 14.83230822401191 HO-68 1 36122U 09072B 12278.74201514 -.00000044 00000-0 00000 0 0 8881 2 36122 100.3485 335.8173 0007204 217.5058 142.5561 13.16298360134807 UO-11 1 14781U 84021B 12277.73000793 .00001117 00000-0 15235-3 0 09993 2 14781 097.9424 336.2337 0009936 045.3868 314.8152 14.80585072535991 AO-16 1 20439U 90005D 12277.87341209 .00000248 00000-0 10823-3 0 05880 2 20439 098.4386 218.2506 0010312 193.8858 166.2040 14.32091026185552 LO-19 1 20442U 90005G 12277.88000219 .00000234 00000-0 10221-3 0 05043 2 20442 098.4067 220.8894 0011417 184.6680 175.4392 14.32307134185742 AO-27 1 22825U 93061C 12277.87908027 .00000173 00000-0 84918-4 0 2110 2 22825 098.5842 219.0489 0007947 326.5123 033.5554 14.29492068992009 IO-26 1 22826U 93061D 12277.85906040 .00000256 00000-0 11651-3 0 09776 2 22826 098.5781 219.3718 0008627 320.5862 039.4687 14.29769124992136 GO-32 1 25397U 98043D 12277.51904577 .00000230 00000-0 11994-3 0 8897 2 25397 098.3764 250.9688 0001349 011.0230 349.0963 14.23296970739430 NO-44 1 26931U 01043C 12277.74299307 .00000163 00000-0 95480-4 0 01520 2 26931 067.0520 200.5477 0006140 250.6072 109.4372 14.29837561574762 SO-50 1 27607U 02058C 12278.58434690 .00001272 00000-0 21230-3 0 8819 2 27607 064.5586 322.0836 0075761 226.6430 132.8333 14.72553757526070 CO-55 1 27844U 03031E 12277.56435813 .00000451 00000-0 22805-3 0 4766 2 27844 098.7029 284.3798 0008885 271.1514 088.8651 14.21083675480288 CO-57 1 27848U 03031J 12278.50268528 .00000306 00000-0 16186-3 0 4261 2 27848 098.7122 284.6866 0008899 274.9005 085.1148 14.20827447480357 AO-51 1 28375U 04025K 12278.65358140 .00000182 00000-0 66835-4 0 3805 2 28375 098.1605 238.9168 0084573 069.1792 291.8439 14.40993987434533 CP3 1 31129U 07012N 12277.94504195 .00001281 00000-0 29885-3 0 02824 2 31129 097.8842 279.3450 0101220 144.3415 216.4581 14.53234406289776 CO-65 1 32785U 08021C 12277.73210651 .00002664 00000-0 33158-3 0 04334 2 32785 097.7866 336.1592 0015792 069.2769 291.0108 14.83243785239855 PRISM 1 33493U 09002B 12278.75050441 .00004972 00000-0 59573-3 0 1322 2 33493 098.1854 062.0617 0017736 303.8529 056.0994 14.84456162200001 SOHLA-1 1 33496U 09002E 12277.87632558 .00000813 00000-0 14363-3 0 08585 2 33496 098.1138 028.9529 0007527 060.0044 300.1907 14.70063300198212 SO-67 1 35870U 09049F 12278.75176634 .00007028 00000-0 28680-3 0 3880 2 35870 097.2224 310.6433 0003312 116.9497 349.1081 15.24710902169303 TISAT-1 1 36799U 10035E 12278.77722647 .00003359 00000-0 42599-3 0 4060 2 36799 098.0547 355.8891 0014863 173.0014 187.1391 14.82332306120720 STUDSAT 1 36801U 10035G 12277.84118217 .00010532 00000-0 12273-2 0 04979 2 36801 098.0620 356.1961 0012600 161.7837 198.3828 14.85367378120642 FO-69 1 37227U 0 12278.34281557 .00000991 00000-0 14747-3 0 03018 2 37227 071.9686 071.0651 0015487 120.4940 239.8047 14.77198537052210 FO-70 1 37380U 0 12278.36681255 .00001157 00000-0 17176-3 0 03057 2 37380 071.9714 071.7126 0016212 117.5761 242.7091 14.76947862052103 ALMASAT-1 1 38078U 12006B 12278.85993318 .00032339 00000-0 89598-3 0 6226 2 38078 069.4779 068.1911 0739111 111.1034 257.0413 14.13365514 33022 XATCOBEO 1 38082U 12006F 12278.84052952 .00071705 00000-0 17229-2 0 5950 2 38082 069.4785 062.7399 0692464 108.1922 259.5228 14.26133257 33162 NOAA-10 1 16969U 86073A 12277.86841203 .00000217 00000-0 10594-3 0 00876 2 16969 098.5728 304.9496 0011415 278.6943 081.2944 14.27581948355378 NOAA-11 1 19531U 88089A 12277.75864799 -.00000037 00000-0 31359-5 0 00804 2 19531 098.7281 000.6111 0010372 276.3263 083.6728 14.14983143239867 NOAA-12 1 21263U 91032A 12277.98224652 .00000091 00000-0 57302-4 0 05757 2 21263 098.7239 299.1096 0012989 244.9475 115.0358 14.25521257112050 MET-3/5 1 21655U 91056A 12278.84666374 .00000444 00000-0 11206-2 0 5196 2 21655 082.5541 074.7088 0014010 052.4248 307.8144 13.17037145 16322 MET-2/21 1 22782U 93055A 12278.63572699 .00000039 00000-0 21881-4 0 5442 2 22782 082.5459 305.6772 0021772 202.1219 157.9018 13.83688840964304 OKEAN-4 1 23317U 94066A 12277.93472133 .00001639 00000-0 19343-3 0 00557 2 23317 082.5370 289.5239 0021612 358.0933 002.0198 14.83983025970935 NOAA-14 1 23455U 94089A 12277.88634289 .00000004 00000-0 25043-4 0 00573 2 23455 098.8236 359.9914 0009920 011.6506 348.4893 14.13873018916153 NOAA-15 1 25338U 98030A 12277.88238655 .00000173 00000-0 92651-4 0 04279 2 25338 098.7003 263.8273 0010893 147.9559 212.2289 14.25126022748338 RESURS 1 25394U 98043A 12277.93862878 .00000097 00000-0 59833-4 0 02156 2 25394 098.3307 260.5101 0000844 333.4510 026.6627 14.24299431739888 FENGYUN1 1 25730U 99025A 12278.80276133 .00001208 00000-0 71097-3 0 7099 2 25730 098.8524 235.9311 0021168 046.8409 313.4517 14.09771062690059 OKEAN-0 1 25860U 99039A 12278.80521419 .00001027 00000-0 16257-3 0 7522 2 25860 097.9511 239.2948 0000573 050.7483 309.3776 14.74327006710720 NOAA-16 1 26536U 00055A 12277.82024913 .00000514 00000-0 30129-3 0 09189 2 26536 099.0804 321.5604 0011322 135.8578 224.3465 14.12789029620378 NOAA-17 1 27453U 02032A 12277.89745229 .00000280 00000-0 13820-3 0 08618 2 27453 098.3285 299.4104 0011258 193.7303 166.3572 14.24489578534239 NOAA-18 1 28654U 05018A 12277.93212952 .00000316 00000-0 19838-3 0 03436 2 28654 099.0596 236.9971 0013788 206.8582 153.1851 14.11709501379901 NOAA-19 1 33591U 09005A 12277.89363777 .00000513 00000-0 30761-3 0 05315 2 33591 098.8718 216.3738 0015018 073.6916 286.5914 14.11395185188348 HUBBLE 1 20580U 90037B 12278.04747098 .00002994 00000-0 20570-3 0 827 2 20580 028.4689 150.9861 0003504 140.6891 219.3878 15.02858790 31125 ISS 1 25544U 98067A 12278.82122685 .00025880 00000-0 44884-3 0 4117 2 25544 051.6464 296.5983 0018412 129.2636 226.5080 15.50516204795042 CO-58 1 28895U 05043F 12277.58896704 .00001193 00000-0 25310-3 0 02935 2 28895 097.8956 139.0109 0017801 166.8338 193.3335 14.60771178369482 FALCON 1 30776U 07006E 12277.57582791 .00007006 00000-0 44369-3 0 04659 2 30776 035.4319 334.4308 0002271 230.7569 129.2947 15.08379938306623 MAST 1 31126U 07012K 12278.48737979 .00000817 00000-0 19146-3 0 5735 2 31126 097.8758 283.2094 0094494 129.5258 231.4330 14.54273894290159 CAPE1 1 31130U 07012P 12277.58065381 .00000989 00000-0 23354-3 0 05849 2 31130 097.8840 278.6872 0101656 146.0750 214.6993 14.53088470289517 COMPASS 1 32787U 08021E 12278.75781257 .00003402 00000-0 40972-3 0 4270 2 32787 097.7878 337.6238 0016065 063.1355 297.1454 14.84429351240063 AAUSAT2 1 32788U 08021F 12277.82643519 .00003873 00000-0 46164-3 0 4187 2 32788 097.7871 337.1579 0016017 067.7267 292.5474 14.84780574239953 DO-64 1 32789U 08021G 12278.63032313 .00006492 00000-0 73655-3 0 4356 2 32789 097.8019 340.4099 0015492 059.5035 300.7605 14.86578684240130 CO-66 1 32791U 08021J 12277.64660671 .00002953 00000-0 36219-3 0 04176 2 32791 097.7879 336.1889 0016773 068.6096 291.6921 14.83762654239828 RS-30 1 32953U 08025A 12278.83414341 .00000010 00000-0 00000 0 0 2011 2 32953 082.5003 226.9444 0020392 068.8941 291.4320 12.43028152198181 PHARMSAT 1 35002U 09028B 12226.86484473 .07728342 73476-5 57159-3 0 789 2 35002 040.4341 050.6671 0012079 300.9773 059.0492 16.39309245183554 METEOR-M 1 35865U 09049A 12278.78544814 -.00000083 00000-0 -17882-4 0 8396 2 35865 098.6404 330.9860 0003330 091.5801 268.5760 14.21870120158174 RS-38 1 35869U 09049E 12278.71971612 .00000087 00000-0 59002-4 0 8238 2 35869 098.6377 330.8980 0005518 092.3072 267.8729 14.22090410158183 JUGNU 1 37839U 11058B 12277.78280963 .00000620 00000-0 19019-3 0 02418 2 37839 019.9596 060.3096 0019206 340.3503 019.6161 14.12085568050617 SRMSAT 1 37841U 11058D 12278.69284855 .00000264 00000-0 00000 0 0 2427 2 37841 019.9699 061.8374 0012003 310.6014 049.3366 14.10166470 50666 RAX-2 1 37853U 11061D 12277.86369432 .00007216 00000-0 56660-3 0 03115 2 37853 101.7046 007.5568 0243446 040.7818 321.1319 14.80977820050482 AUBIESAT 1 37854U 11061E 12278.86833767 .00005509 00000-0 42921-3 0 3044 2 37854 101.7072 009.4234 0243575 037.3976 324.3868 14.81444237 50625 HRBE 1 37855U 11061F 12277.81350390 .00007854 00000-0 60683-3 0 03045 2 37855 101.7078 007.8006 0244998 040.2603 321.6455 14.81249505050466 RS-39 1 38051U 11062C 12278.81562591 .00015285 00000-0 59315-3 0 7630 2 38051 051.6397 356.7651 0013846 070.0062 032.9947 15.26203053 38709 E-STAR 1 38079U 12006C 12278.48518885 .00061336 00000-0 14805-2 0 5505 2 38079 069.4857 064.6073 0707135 109.3247 258.5464 14.22942666 33083 GOLIAT 1 38085U 12006J 12278.48740678 .00059028 00000-0 14188-2 0 5160 2 38085 069.4873 065.2746 0713193 109.6907 258.2457 14.21745117 33067 HORYU-2 1 38340U 12025D 12278.88580632 .00002103 00000-0 35689-3 0 1798 2 38340 098.1845 218.9168 0012582 347.8719 012.2022 14.70239287 20595 RS-40 1 38736U 12041D 12277.67696518 .00000010 00000-0 00000-0 0 00714 2 38736 082.4788 315.0678 0019075 163.8936 196.2761 12.42646648008388 PROITERES 1 38756U 12047B 12278.88592976 .00001013 00000-0 16249-3 0 954 2 38756 098.2835 344.9095 0012357 193.7070 166.3795 14.73900714 3786 AENEAS 1 38760U 0 12278.53401541 .00005424 00000-0 50270-3 0 00349 2 38760 064.6757 337.4563 0218907 283.6539 220.0928 14.79040195003034 OBJECT D 1 38761U 0 12278.53286792 .00003542 00000-0 33262-3 0 00306 2 38761 064.6753 337.4447 0219609 283.7006 224.2856 14.79139013003036 OBJECT E 1 38762U 0 12278.53224914 .00004835 00000-0 44703-3 0 00303 2 38762 064.6771 337.4428 0219560 283.4439 224.1284 14.79190727003032 OBJECT F 1 38763U 0 12278.53194539 .00004382 00000-0 40626-3 0 00287 2 38763 064.6755 337.4432 0219859 283.6030 224.1451 14.79201828002872 OBJECT G 1 38764U 0 12278.53160882 .00004593 00000-0 42532-3 0 00284 2 38764 064.6751 337.4420 0219548 283.5935 222.9426 14.79214043003034 OBJECT H 1 38765U 0 12278.45503644 .00006059 00000-0 55525-3 0 00312 2 38765 064.6769 337.6737 0219301 283.5957 176.6794 14.79257306003029 OBJECT J 1 38766U 0 12278.45696642 .00006945 00000-0 63214-3 0 00288 2 38766 064.6746 337.6519 0219104 283.4617 195.2216 14.79383851003027 /EX
participants (1)
-
Ray Hoad